EDT,Max TemperatureF,Mean TemperatureF,Min TemperatureF,Max Dew PointF,MeanDew PointF,Min DewpointF,Max Humidity, Mean Humidity, Min Humidity, Max Sea Level PressureIn, Mean Sea Level PressureIn, Min Sea Level PressureIn, Max VisibilityMiles, Mean VisibilityMiles, Min VisibilityMiles, Max Wind SpeedMPH, Mean Wind SpeedMPH, Max Gust SpeedMPH,PrecipitationIn, CloudCover, Events, WindDirDegrees
2013-8-1,84,76,69,72,70,68,94,85,58,30.05,29.99,29.94,10,8,5,9,1,,0.00,5,Thunderstorm,214
2013-8-2,86,78,69,72,69,64,100,84,51,30.09,30.03,29.98,10,8,2,9,1,,0.00,3,,32
2013-8-3,89,80,71,73,70,66,100,83,46,30.08,30.05,29.99,10,7,2,9,1,,0.00,1,,250
2013-8-4,86,77,68,70,66,61,94,78,43,30.09,30.02,29.98,10,9,5,18,2,21,0.00,1,,13
2013-8-5,82,74,66,66,64,63,88,73,51,30.14,30.08,30.03,10,10,10,5,1,,0.00,4,,122
2013-8-6,75,70,66,70,66,63,94,85,69,30.12,30.08,30.04,10,8,2,10,3,,0.33,7,Rain,167
2013-8-7,84,76,69,70,68,63,94,84,51,30.15,30.11,30.07,10,8,4,12,1,,0.00,5,,161
2013-8-8,84,78,71,75,71,68,100,89,66,30.13,30.10,30.06,10,9,3,9,1,,0.01,4,Rain,124
2013-8-9,89,80,71,73,72,70,100,87,58,30.13,30.10,30.07,10,7,2,10,2,,0.00,1,,216
2013-8-10,91,80,69,75,71,68,100,86,52,30.17,30.14,30.09,10,9,4,17,1,29,0.01,1,,278
2013-8-11,93,81,69,72,70,68,100,79,46,30.19,30.14,30.09,10,9,5,7,1,,0.00,0,,248
2013-8-12,91,80,69,73,70,66,100,85,43,30.12,30.07,30.01,10,8,2,8,1,,0.00,2,,26
2013-8-13,89,79,69,72,70,68,100,85,49,30.03,29.94,29.86,10,9,5,10,1,,0.00,3,Thunderstorm,248
2013-8-14,77,72,64,70,63,55,94,76,47,30.13,30.01,29.92,10,10,9,12,3,,0.00,5,,13
2013-8-15,73,66,60,61,57,52,94,76,47,30.22,30.16,30.13,10,10,10,10,2,,0.00,2,,46
2013-8-16,82,70,59,63,57,55,94,80,48,30.22,30.18,30.14,10,10,7,7,2,,0.00,3,Rain,37
2013-8-17,66,63,60,64,61,59,100,93,88,30.24,30.21,30.19,10,6,2,13,3,,0.60,8,Rain,13
2013-8-18,80,72,64,70,66,63,100,91,65,30.27,30.22,30.19,10,8,3,6,0,,0.02,7,Rain,332
2013-8-19,77,72,66,70,68,64,100,93,73,30.23,30.20,30.15,10,7,2,5,0,,0.65,6,Rain-Thunderstorm,38
2013-8-20,80,71,62,72,67,63,100,92,65,30.25,30.20,30.17,10,5,0,0,0,,0.00,4,Fog-Rain,-1
2013-8-21,80,74,69,73,70,68,100,93,74,30.28,30.23,30.18,10,7,2,4,0,,0.00,3,Rain,276
2013-8-22,87,78,68,72,69,66,100,85,49,30.21,30.16,30.07,10,7,1,6,0,,0.00,3,,274
2013-8-23,87,76,66,72,67,64,100,86,46,30.14,30.08,30.03,10,9,4,7,1,,0.00,1,,19
2013-8-24,82,72,62,64,61,55,94,79,42,30.35,30.24,30.15,10,10,10,12,5,,0.00,3,,20
2013-8-25,78,66,55,63,58,55,100,84,47,30.44,30.37,30.34,10,9,2,10,1,,0.00,1,,48
2013-8-26,82,68,53,64,58,54,100,85,42,30.38,30.30,30.18,10,7,1,8,0,,0.00,0,,310
2013-8-27,87,74,60,72,64,61,100,82,49,30.20,30.12,30.05,10,10,7,7,1,,0.00,0,,293
2013-8-28,87,78,68,70,69,66,100,81,52,30.08,30.02,29.98,10,6,2,9,1,,0.00,0,,232
2013-8-29,89,81,73,72,70,68,88,73,52,30.05,29.98,29.95,10,9,7,9,3,,0.00,3,,21
2013-8-30,86,77,68,70,66,57,100,78,42,30.12,30.06,29.99,10,9,3,5,1,,0.00,2,,98
2013-8-31,87,76,64,73,67,64,100,85,58,30.03,29.99,29.93,10,9,4,8,1,,0.00,1,,185